DW5684 Weather Reports


Display with metric or nautical units.
time (UTC)temp
F
wind
direction
speed
MPH
gust
MPH
rain 1hr
in
rain 24hr
in
rain mn
in
humidity
%
barometer
mb
20260902045325 84 186 2.0 8.0 0.00 0.00 0.00 60 1016.3
20260902044820 84 203 1.0 8.0 0.00 0.00 0.00 60 1016.2
20260902044318 84 196 0.0 5.0 0.00 0.00 0.00 60 1016.1
20260902043833 84 115 1.0 5.0 0.00 0.00 0.00 60 1016.1
20260902043328 84 153 2.0 5.0 0.00 0.00 0.00 60 1016.0
20260902042823 84 145 1.0 4.0 0.00 0.00 0.00 59 1016.0
20260902042338 84 160 1.0 5.0 0.00 0.00 0.00 59 1016.0
20260902041852 84 186 1.0 5.0 0.00 0.00 0.00 59 1016.0
20260902041326 84 174 2.0 4.0 0.00 0.00 0.00 59 1015.9
20260902040821 83 152 1.0 5.0 0.00 0.00 0.00 60 1015.9
20260902040320 83 218 2.0 5.0 0.00 0.00 0.00 61 1016.0
20260902035834 82 182 1.0 4.0 0.00 0.00 0.00 62 1015.9
20260902035349 81 191 1.0 2.0 0.00 0.00 0.00 64 1015.9
20260902034823 80 177 0.0 1.0 0.00 0.00 0.00 66 1015.9
20260902034339 80 230 0.0 0.0 0.00 0.00 0.00 65 1016.0
20260902033832 81 230 0.0 0.0 0.00 0.00 0.00 66 1015.9
20260902033327 81 230 0.0 0.0 0.00 0.00 0.00 65 1015.8
20260902032822 81 229 0.0 0.0 0.00 0.00 0.00 65 1015.9
20260902032335 81 230 0.0 0.0 0.00 0.00 0.00 66 1015.8
20260902031350 81 230 0.0 0.0 0.00 0.00 0.00 65 1015.8
20260902030824 81 230 0.0 0.0 0.00 0.00 0.00 64 1015.8
20260902030318 81 232 0.0 0.0 0.00 0.00 0.00 64 1015.8
20260902025832 81 232 0.0 0.0 0.00 0.00 0.00 63 1015.7
20260902025327 82 232 0.0 0.0 0.00 0.00 0.00 64 1015.6
20260902024821 82 232 0.0 0.0 0.00 0.00 0.00 63 1015.6
20260902024336 82 232 0.0 0.0 0.00 0.00 0.00 63 1015.5
20260902023830 82 232 0.0 0.0 0.00 0.00 0.00 62 1015.4
20260902023349 83 232 0.0 0.0 0.00 0.00 0.00 63 1015.4
20260902022822 83 232 0.0 0.0 0.00 0.00 0.00 63 1015.3
20260902022337 82 232 0.0 0.0 0.00 0.00 0.00 64 1015.3
20260902021852 82 232 0.0 0.0 0.00 0.00 0.00 62 1015.3
20260902021325 82 232 0.0 0.0 0.00 0.00 0.00 61 1015.2
20260902020820 83 158 0.0 0.0 0.00 0.00 0.00 62 1015.2
20260902020336 83 158 0.0 0.0 0.00 0.00 0.00 61 1015.1
20260902015829 83 158 0.0 0.0 0.00 0.00 0.00 64 1015.0
20260902015328 84 158 0.0 0.0 0.00 0.00 0.00 62 1015.0
20260902014823 85 158 0.0 0.0 0.00 0.00 0.00 57 1014.9
20260902014318 85 158 0.0 0.0 0.00 0.00 0.00 57 1014.9
20260902013834 85 158 0.0 0.0 0.00 0.00 0.00 56 1014.8
20260902013348 86 158 0.0 0.0 0.00 0.00 0.00 56 1014.8
20260902012821 86 158 0.0 0.0 0.00 0.00 0.00 56 1014.7
20260902012333 87 158 0.0 0.0 0.00 0.00 0.00 56 1014.7
20260902011828 87 158 0.0 0.0 0.00 0.00 0.00 55 1014.7
20260902011322 87 158 0.0 0.0 0.00 0.00 0.00 55 1014.7
20260902010820 86 156 0.0 0.0 0.00 0.00 0.00 55 1014.7
20260902010334 87 158 0.0 0.0 0.00 0.00 0.00 55 1014.7
20260902005849 87 158 0.0 0.0 0.00 0.00 0.00 55 1014.7
20260902005324 87 158 0.0 0.0 0.00 0.00 0.00 55 1014.6
20260902004839 87 155 0.0 0.0 0.00 0.00 0.00 54 1014.7
20260902004333 88 155 0.0 0.0 0.00 0.00 0.00 53 1014.6
20260902003828 89 155 0.0 0.0 0.00 0.00 0.00 52 1014.7
20260902003323 89 155 0.0 0.0 0.00 0.00 0.00 52 1014.7
20260902002818 90 155 0.0 0.0 0.00 0.00 0.00 51 1014.7
20260902002353 91 155 0.0 0.0 0.00 0.00 0.00 51 1014.7
20260902001831 92 155 0.0 0.0 0.00 0.00 0.00 51 1014.7
20260902001325 92 155 0.0 0.0 0.00 0.00 0.00 50 1014.7
20260902000840 93 155 0.0 4.0 0.00 0.00 0.00 49 1014.7
20260902000333 93 155 0.0 4.0 0.00 0.00 0.00 48 1014.8
20260901235830 94 208 0.0 0.0 0.00 0.00 0.00 47 1014.8
20260901235325 94 208 0.0 0.0 0.00 0.00 0.00 46 1014.8
20260901234819 94 208 0.0 0.0 0.00 0.00 0.00 45 1014.8
20260901234355 94 208 0.0 0.0 0.00 0.00 0.00 44 1014.9
20260901233833 94 274 0.0 0.0 0.00 0.00 0.00 44 1014.9
20260901233348 94 274 0.0 0.0 0.00 0.00 0.00 44 1015.0
20260901232822 94 274 0.0 0.0 0.00 0.00 0.00 45 1015.0
20260901232357 94 274 0.0 0.0 0.00 0.00 0.00 43 1015.0
20260901231831 95 214 0.0 0.0 0.00 0.00 0.00 46 1015.1
20260901231326 97 214 0.0 0.0 0.00 0.00 0.00 43 1015.0
20260901230842 97 214 0.0 0.0 0.00 0.00 0.00 40 1015.1
20260901230336 98 214 0.0 0.0 0.00 0.00 0.00 38 1015.1
20260901225831 98 215 0.0 4.0 0.00 0.00 0.00 37 1015.1
20260901225346 98 218 0.0 0.0 0.00 0.00 0.00 37 1015.1
20260901224844 98 288 0.0 3.0 0.00 0.00 0.00 38 1015.1
20260901224317 98 217 2.0 6.0 0.00 0.00 0.00 38 1015.1
20260901223833 98 236 1.0 6.0 0.00 0.00 0.00 40 1015.0
20260901223328 97 210 2.0 4.0 0.00 0.00 0.00 39 1015.1
20260901222822 97 76 0.0 3.0 0.00 0.00 0.00 43 1015.0
20260901222335 97 72 0.0 0.0 0.00 0.00 0.00 44 1015.0
20260901221830 98 72 0.0 0.0 0.00 0.00 0.00 43 1015.0
20260901221324 99 72 0.0 0.0 0.00 0.00 0.00 38 1015.0
20260901220820 100 228 0.0 3.0 0.00 0.00 0.00 37 1015.0
20260901220335 100 203 0.0 3.0 0.00 0.00 0.00 36 1015.0
20260901215829 100 359 0.0 3.0 0.00 0.00 0.00 37 1015.1
20260901215343 101 226 0.0 3.0 0.00 0.00 0.00 37 1015.1
20260901214837 101 182 0.0 3.0 0.00 0.00 0.00 37 1015.1
20260901214331 100 174 1.0 3.0 0.00 0.00 0.00 39 1015.2
20260901213826 99 146 0.0 3.0 0.00 0.00 0.00 38 1015.2
20260901213320 99 178 0.0 0.0 0.00 0.00 0.00 38 1015.2
20260901212819 99 144 0.0 2.0 0.00 0.00 0.00 39 1015.3
20260901212334 99 217 0.0 2.0 0.00 0.00 0.00 38 1015.3
20260901211828 99 176 0.0 1.0 0.00 0.00 0.00 41 1015.4
20260901211322 99 230 0.0 5.0 0.00 0.00 0.00 38 1015.4
20260901210836 99 163 1.0 5.0 0.00 0.00 0.00 39 1015.5
20260901210331 100 226 2.0 7.0 0.00 0.00 0.00 37 1015.6
20260901205825 100 223 1.0 7.0 0.00 0.00 0.00 37 1015.5
20260901205319 100 224 0.0 3.0 0.00 0.00 0.00 39 1015.6
20260901204836 100 341 0.0 1.0 0.00 0.00 0.00 38 1015.8
20260901204331 99 300 0.0 4.0 0.00 0.00 0.00 39 1015.8
20260901203825 99 54 0.0 5.0 0.00 0.00 0.00 41 1015.8
20260901203320 98 72 0.0 3.0 0.00 0.00 0.00 41 1015.9
20260901202834 97 118 0.0 1.0 0.00 0.00 0.00 41 1015.9
20260901202327 97 94 0.0 1.0 0.00 0.00 0.00 40 1016.1
20260901201841 98 91 0.0 1.0 0.00 0.00 0.00 40 1016.2
20260901201335 99 297 0.0 1.0 0.00 0.00 0.00 39 1016.2
20260901200829 99 221 0.0 2.0 0.00 0.00 0.00 39 1016.2
20260901200329 98 230 0.0 2.0 0.00 0.00 0.00 40 1016.2
20260901195823 98 219 0.0 3.0 0.00 0.00 0.00 39 1016.4
20260901195318 98 228 0.0 3.0 0.00 0.00 0.00 40 1016.4
20260901194832 98 174 0.0 5.0 0.00 0.00 0.00 39 1016.4
20260901194325 99 219 2.0 5.0 0.00 0.00 0.00 37 1016.5
20260901193841 100 205 1.0 4.0 0.00 0.00 0.00 38 1016.5
20260901193331 100 261 0.0 3.0 0.00 0.00 0.00 39 1016.5
20260901192824 100 125 0.0 1.0 0.00 0.00 0.00 37 1016.6
20260901192323 101 173 0.0 4.0 0.00 0.00 0.00 38 1016.7
20260901191858 101 353 1.0 4.0 0.00 0.00 0.00 38 1016.7
20260901191351 100 70 0.0 3.0 0.00 0.00 0.00 40 1016.8
20260901190320 98 283 0.0 3.0 0.00 0.00 0.00 41 1017.0
20260901185833 99 205 0.0 4.0 0.00 0.00 0.00 41 1017.0
20260901185326 99 169 1.0 4.0 0.00 0.00 0.00 38 1017.1
20260901184821 100 261 1.0 3.0 0.00 0.00 0.00 39 1017.1
20260901184334 100 297 0.0 3.0 0.00 0.00 0.00 41 1017.1
20260901183829 99 330 0.0 7.0 0.00 0.00 0.00 39 1017.0
20260901183328 98 263 3.0 7.0 0.00 0.00 0.00 41 1017.2
20260901182843 99 287 0.0 5.0 0.00 0.00 0.00 40 1017.3
20260901182336 99 186 1.0 5.0 0.00 0.00 0.00 39 1017.3
20260901181831 98 262 0.0 2.0 0.00 0.00 0.00 42 1017.4
20260901181326 98 313 0.0 2.0 0.00 0.00 0.00 40 1017.5
20260901180821 98 284 0.0 8.0 0.00 0.00 0.00 40 1017.6
20260901180335 98 283 2.0 8.0 0.00 0.00 0.00 39 1017.7
20260901175851 98 219 0.0 5.0 0.00 0.00 0.00 42 1017.7
20260901175325 98 282 1.0 4.0 0.00 0.00 0.00 41 1017.9
20260901174844 98 330 0.0 5.0 0.00 0.00 0.00 44 1018.0
20260901174317 98 18 1.0 5.0 0.00 0.00 0.00 44 1018.0
20260901173831 97 268 0.0 4.0 0.00 0.00 0.00 45 1018.1
20260901173326 97 335 1.0 4.0 0.00 0.00 0.00 44 1018.2
20260901172840 97 246 0.0 4.0 0.00 0.00 0.00 44 1018.4
20260901172334 98 319 0.0 6.0 0.00 0.00 0.00 44 1018.4
20260901171829 97 231 2.0 6.0 0.00 0.00 0.00 45 1018.4
20260901171324 97 225 1.0 7.0 0.00 0.00 0.00 44 1018.5
20260901170838 97 206 2.0 7.0 0.00 0.00 0.00 44 1018.5
20260901170331 96 169 0.0 6.0 0.00 0.00 0.00 47 1018.5
20260901165830 96 217 3.0 10.0 0.00 0.00 0.00 46 1018.6
20260901165325 96 190 4.0 10.0 0.00 0.00 0.00 47 1018.6
20260901164820 96 226 2.0 6.0 0.00 0.00 0.00 48 1018.7
20260901164335 96 228 0.0 6.0 0.00 0.00 0.00 49 1018.8
20260901163830 96 241 4.0 6.0 0.00 0.00 0.00 47 1018.8
20260901163324 96 194 0.0 4.0 0.00 0.00 0.00 48 1018.8
20260901162819 95 217 0.0 3.0 0.00 0.00 0.00 49 1018.8
20260901162318 94 216 1.0 5.0 0.00 0.00 0.00 51 1018.9
20260901161833 93 215 3.0 5.0 0.00 0.00 0.00 50 1018.9
20260901161327 93 207 1.0 6.0 0.00 0.00 0.00 51 1018.9
20260901160822 93 212 2.0 6.0 0.00 0.00 0.00 51 1019.0
20260901160317 93 228 1.0 6.0 0.00 0.00 0.00 52 1019.0
20260901155832 93 219 0.0 1.0 0.00 0.00 0.00 53 1019.1
20260901155327 92 185 0.0 0.0 0.00 0.00 0.00 53 1019.1
20260901154825 92 217 0.0 7.0 0.00 0.00 0.00 53 1019.1
20260901154319 91 191 3.0 9.0 0.00 0.00 0.00 52 1019.1
20260901153329 92 247 1.0 6.0 0.00 0.00 0.00 52 1018.9
20260901152823 91 142 4.0 8.0 0.00 0.00 0.00 53 1018.9
20260901152336 91 169 5.0 8.0 0.00 0.00 0.00 53 1018.8
20260901151830 91 239 4.0 7.0 0.00 0.00 0.00 52 1018.9
20260901151346 91 208 3.0 7.0 0.00 0.00 0.00 54 1018.9
20260901150817 91 217 4.0 7.0 0.00 0.00 0.00 53 1018.8
20260901150352 91 210 1.0 7.0 0.00 0.00 0.00 54 1018.8
20260901145830 91 212 4.0 7.0 0.00 0.00 0.00 54 1018.8
20260901145324 90 191 3.0 6.0 0.00 0.00 0.00 55 1018.8
20260901144818 90 184 2.0 5.0 0.00 0.00 0.00 56 1018.7
20260901144333 89 229 1.0 5.0 0.00 0.00 0.00 56 1018.8
20260901143829 89 211 2.0 5.0 0.00 0.00 0.00 56 1018.9
20260901143343 88 194 2.0 5.0 0.00 0.00 0.00 57 1018.9
20260901142817 88 203 3.0 5.0 0.00 0.00 0.00 57 1019.0
20260901142332 88 214 3.0 5.0 0.00 0.00 0.00 56 1018.9
20260901141831 88 146 1.0 7.0 0.00 0.00 0.00 58 1019.0
20260901141326 87 129 0.0 7.0 0.00 0.00 0.00 58 1019.0
20260901140820 87 204 3.0 5.0 0.00 0.00 0.00 58 1019.0
20260901140335 87 203 1.0 4.0 0.00 0.00 0.00 58 1019.0
20260901135829 86 216 1.0 4.0 0.00 0.00 0.00 58 1019.1
20260901135323 86 200 0.0 5.0 0.00 0.00 0.00 59 1019.1
20260901134818 86 143 3.0 5.0 0.00 0.00 0.00 59 1019.1
20260901134337 86 220 0.0 3.0 0.00 0.00 0.00 59 1019.1
20260901133831 85 217 0.0 5.0 0.00 0.00 0.00 60 1019.1
20260901133325 84 209 2.0 6.0 0.00 0.00 0.00 60 1019.1
20260901132840 84 200 0.0 6.0 0.00 0.00 0.00 61 1019.0
20260901132334 84 221 1.0 5.0 0.00 0.00 0.00 61 1019.0
20260901131826 84 227 0.0 3.0 0.00 0.00 0.00 61 1018.9
20260901131340 85 217 1.0 2.0 0.00 0.00 0.00 60 1018.8
20260901130831 84 221 0.0 3.0 0.00 0.00 0.00 61 1018.8
20260901130344 83 214 0.0 3.0 0.00 0.00 0.00 61 1018.7
20260901125817 83 207 0.0 4.0 0.00 0.00 0.00 63 1018.7
20260901125332 82 219 1.0 4.0 0.00 0.00 0.00 63 1018.7
20260901124831 82 214 1.0 4.0 0.00 0.00 0.00 63 1018.7
20260901124344 81 221 1.0 4.0 0.00 0.00 0.00 64 1018.6
20260901123838 81 220 1.0 3.0 0.00 0.00 0.00 64 1018.6
20260901123332 81 212 1.0 3.0 0.00 0.00 0.00 65 1018.5
20260901122827 80 211 0.0 2.0 0.00 0.00 0.00 66 1018.4
20260901122322 80 213 0.0 1.0 0.00 0.00 0.00 66 1018.4
20260901121836 80 214 0.0 1.0 0.00 0.00 0.00 66 1018.3
20260901121350 79 210 0.0 3.0 0.00 0.00 0.00 67 1018.3
20260901120824 79 162 1.0 5.0 0.00 0.00 0.00 67 1018.3
20260901120338 78 216 1.0 5.0 0.00 0.00 0.00 68 1018.2
20260901115836 78 208 0.0 3.0 0.00 0.00 0.00 68 1018.1
20260901115330 78 219 1.0 3.0 0.00 0.00 0.00 68 1018.0
20260901114843 78 217 1.0 2.0 0.00 0.00 0.00 69 1018.0
20260901114317 78 221 0.0 4.0 0.00 0.00 0.00 69 1018.0
20260901113851 78 207 1.0 4.0 0.00 0.00 0.00 69 1017.8
20260901113325 78 176 0.0 2.0 0.00 0.00 0.00 70 1017.8
20260901112819 77 202 0.0 3.0 0.00 0.00 0.00 70 1017.8
20260901112353 77 217 1.0 3.0 0.00 0.00 0.00 70 1017.7
20260901111846 77 214 0.0 3.0 0.00 0.00 0.00 71 1017.7
20260901111321 77 119 0.0 2.0 0.00 0.00 0.00 72 1017.7
20260901110819 77 196 0.0 1.0 0.00 0.00 0.00 71 1017.6
20260901110332 77 217 0.0 2.0 0.00 0.00 0.00 71 1017.7
20260901105827 77 161 0.0 3.0 0.00 0.00 0.00 71 1017.6
20260901105322 77 219 2.0 3.0 0.00 0.00 0.00 71 1017.5
20260901104856 77 205 0.0 3.0 0.00 0.00 0.00 71 1017.5
20260901104330 77 212 0.0 3.0 0.00 0.00 0.00 71 1017.5
20260901103825 77 214 0.0 3.0 0.00 0.00 0.00 71 1017.4
20260901103320 77 214 0.0 1.0 0.00 0.00 0.00 71 1017.5
20260901102839 77 165 0.0 4.0 0.00 0.00 0.00 71 1017.4
20260901102353 77 171 0.0 4.0 0.00 0.00 0.00 70 1017.4
20260901101827 77 212 0.0 3.0 0.00 0.00 0.00 70 1017.4
20260901101321 77 200 1.0 3.0 0.00 0.00 0.00 70 1017.4
20260901100857 77 153 0.0 3.0 0.00 0.00 0.00 70 1017.4
20260901100330 77 189 1.0 3.0 0.00 0.00 0.00 70 1017.4
20260901095824 77 153 0.0 3.0 0.00 0.00 0.00 70 1017.3
20260901095317 77 160 1.0 2.0 0.00 0.00 0.00 70 1017.3
20260901094832 77 163 0.0 3.0 0.00 0.00 0.00 70 1017.3
20260901094330 77 174 0.0 3.0 0.00 0.00 0.00 69 1017.3
20260901093824 77 159 0.0 2.0 0.00 0.00 0.00 69 1017.3
20260901093319 77 176 0.0 4.0 0.00 0.00 0.00 69 1017.3
20260901092833 78 170 0.0 4.0 0.00 0.00 0.00 69 1017.3
20260901092326 78 193 0.0 4.0 0.00 0.00 0.00 69 1017.2
20260901091821 77 145 1.0 4.0 0.00 0.00 0.00 69 1017.1
20260901091336 77 169 0.0 3.0 0.00 0.00 0.00 69 1017.1
20260901090829 78 158 1.0 3.0 0.00 0.00 0.00 69 1017.1
20260901090325 78 173 0.0 2.0 0.00 0.00 0.00 68 1017.1
20260901085843 78 145 0.0 2.0 0.00 0.00 0.00 68 1017.1
20260901085356 78 161 0.0 3.0 0.00 0.00 0.00 68 1017.1
20260901084829 78 118 1.0 3.0 0.00 0.00 0.00 68 1017.1
20260901084324 78 163 0.0 3.0 0.00 0.00 0.00 68 1017.1
20260901083819 77 75 1.0 3.0 0.00 0.00 0.00 68 1017.1
20260901083334 77 198 0.0 0.0 0.00 0.00 0.00 68 1017.1
20260901082829 78 162 0.0 2.0 0.00 0.00 0.00 67 1017.1
20260901082344 78 182 0.0 3.0 0.00 0.00 0.00 67 1017.0
20260901081817 78 162 0.0 3.0 0.00 0.00 0.00 67 1017.1
20260901081317 78 161 0.0 4.0 0.00 0.00 0.00 67 1017.0
20260901080831 78 128 0.0 4.0 0.00 0.00 0.00 66 1017.0
20260901080346 78 167 0.0 2.0 0.00 0.00 0.00 66 1017.0
20260901075820 78 192 0.0 3.0 0.00 0.00 0.00 66 1016.9
20260901075334 78 161 1.0 4.0 0.00 0.00 0.00 66 1016.9
20260901074829 78 160 0.0 2.0 0.00 0.00 0.00 66 1016.9
20260901074324 79 191 0.0 2.0 0.00 0.00 0.00 65 1017.0
20260901073818 79 176 0.0 2.0 0.00 0.00 0.00 65 1017.0
20260901073336 79 165 0.0 2.0 0.00 0.00 0.00 64 1017.0
20260901072830 79 159 0.0 2.0 0.00 0.00 0.00 64 1017.1
20260901072326 79 168 0.0 3.0 0.00 0.00 0.00 64 1017.1
20260901071819 79 192 0.0 3.0 0.00 0.00 0.00 64 1017.1
20260901071334 79 187 1.0 2.0 0.00 0.00 0.00 63 1017.1
20260901070829 79 179 0.0 2.0 0.00 0.00 0.00 63 1017.1
20260901070324 80 155 0.0 3.0 0.00 0.00 0.00 63 1017.1
20260901065823 80 221 0.0 4.0 0.00 0.00 0.00 62 1017.1
20260901065317 80 208 1.0 4.0 0.00 0.00 0.00 62 1017.1
20260901064831 80 205 1.0 4.0 0.00 0.00 0.00 62 1017.0
20260901064326 79 224 1.0 4.0 0.00 0.00 0.00 63 1017.0
20260901063821 79 195 0.0 3.0 0.00 0.00 0.00 63 1017.0
20260901063336 79 205 0.0 2.0 0.00 0.00 0.00 63 1017.1
20260901062831 79 207 0.0 0.0 0.00 0.00 0.00 63 1017.1
20260901062324 79 193 0.0 1.0 0.00 0.00 0.00 63 1017.1
20260901061839 79 219 0.0 2.0 0.00 0.00 0.00 62 1017.2
20260901061317 79 208 1.0 2.0 0.00 0.00 0.00 62 1017.2
20260901060833 79 207 0.0 3.0 0.00 0.00 0.00 62 1017.2
20260901060328 80 200 0.0 3.0 0.00 0.00 0.00 62 1017.1
20260901055823 80 209 1.0 3.0 0.00 0.00 0.00 62 1017.2
20260901055357 80 210 1.0 2.0 0.00 0.00 0.00 62 1017.1
20260901054851 80 211 0.0 3.0 0.00 0.00 0.00 62 1017.1
20260901054326 80 210 1.0 3.0 0.00 0.00 0.00 62 1017.0
20260901053820 80 222 0.0 4.0 0.00 0.00 0.00 62 1017.0
20260901053320 80 217 2.0 4.0 0.00 0.00 0.00 62 1017.0
20260901052834 80 210 0.0 4.0 0.00 0.00 0.00 62 1016.9
20260901052328 80 214 0.0 4.0 0.00 0.00 0.00 61 1016.9
20260901051823 80 193 0.0 3.0 0.00 0.00 0.00 61 1016.9
20260901051318 81 115 0.0 1.0 0.00 0.00 0.00 61 1016.9
20260901050833 81 161 0.0 0.0 0.00 0.00 0.00 61 1016.9
20260901050328 81 181 0.0 0.0 0.00 0.00 0.00 61 1016.7
20260901045824 81 181 0.0 0.0 0.00 0.00 0.00 60 1016.6